Location: Anaheim
(33.8350°N, 117.9140°W)
Time: 00:05:06
(UTC-07:00)

Amateur Radio Satellites - All Passes

Search period start: 27 August 2014 23:35
Search period end: 28 August 2014 23:35
Location: Anaheim, 33.8350°N, 117.9140°W

Satellite Date Start Highest point End Downlink Frequencies (MHz)
Time Altitude Azimuth
KITSAT 1 28 Aug 00:45:04 00:53:00 58° 301° (WNW) 01:00:58 435.175 FM
MaSat-1 28 Aug 00:53:09 00:56:22 20° 259° (WSW) 00:59:16 437.345 MHz
Oscar 16 28 Aug 01:17:18 01:20:27 16° 93° (E) 01:23:35 437.025 USB, Beacon 2401.1428
Sapphire 28 Aug 01:40:43 01:41:46 11° 46° (NE) 01:42:48 437.095 MHz 1200 baud AX-25 AFSK
PCSat 28 Aug 02:08:10 02:12:07 20° 53° (NE) 02:16:03 145.825 MHz
Oscar 19 28 Aug 02:20:30 02:25:42 72° 102° (ESE) 02:30:51 437.125 CW, 437.150 USB
TMSAT-1 28 Aug 02:41:16 02:43:46 13° 92° (E) 02:46:16 436.925 FM
JAS-1B 28 Aug 02:42:32 02:48:46 41° 97° (E) 02:54:15 435.800 - 435.900 CW/SSB
ITAMSAT 1 28 Aug 02:46:02 02:51:05 52° 101° (E) 02:56:08 435.822 SSB
KITSAT 1 28 Aug 02:47:05 02:50:16 13° 323° (NW) 02:53:27 435.175 FM
Oscar 16 28 Aug 02:55:00 03:00:01 49° 287° (WNW) 03:04:59 437.025 USB, Beacon 2401.1428
Uribyol 2 28 Aug 02:56:42 03:01:53 73° 102° (ESE) 03:07:04 436.500 FM
SO-50 28 Aug 03:07:29 03:09:20 12° 107° (ESE) 03:11:12 436.795 FM
AO-Echo 28 Aug 03:11:54 03:16:35 71° 284° (WNW) 03:21:15 ?
AO-27 28 Aug 03:14:10 03:19:22 79° 285° (WNW) 03:24:32 436.795 MHz FM
Sapphire 28 Aug 03:20:35 03:26:02 79° 64° (ENE) 03:31:26 437.095 MHz 1200 baud AX-25 AFSK
Gurwin Techsat 1B 28 Aug 03:25:16 03:30:29 56° 101° (E) 03:35:40 435.225 FM
PCSat 28 Aug 03:50:34 03:55:47 50° 249° (WSW) 04:00:59 145.825 MHz
Oscar 10/S400 28 Aug 03:52:59 05:13:31 37° 243° (WSW) 09:37:53 145.825 - 145.975 CW/USB, Beacon 145.810 USB
AO-7 28 Aug 03:53:27 03:59:08 20° 95° (E) 04:04:45 29.400 - 29.500 MHz
Uosat F 28 Aug 04:01:31 04:04:07 14° 93° (E) 04:06:42 435.120 FM
Oscar 19 28 Aug 04:02:31 04:04:22 12° 297° (WNW) 04:06:12 437.125 CW, 437.150 USB
OPAL 28 Aug 04:12:24 04:17:18 57° 72° (ENE) 04:22:17 ?
TMSAT-1 28 Aug 04:18:48 04:24:01 60° 286° (WNW) 04:29:12 436.925 FM
ITAMSAT 1 28 Aug 04:27:02 04:30:06 16° 295° (WNW) 04:33:11 435.822 SSB
JAS-1B 28 Aug 04:33:44 04:39:02 25° 297° (WNW) 04:43:48 435.800 - 435.900 CW/SSB
Uribyol 2 28 Aug 04:38:57 04:40:41 12° 297° (WNW) 04:42:26 436.500 FM
SO-50 28 Aug 04:45:01 04:49:21 52° 302° (WNW) 04:53:48 436.795 FM
Gurwin Techsat 1B 28 Aug 05:06:53 05:09:56 16° 295° (WNW) 05:12:58 435.225 FM
Sapphire 28 Aug 05:08:06 05:08:41 10° 258° (WSW) 05:09:15 437.095 MHz 1200 baud AX-25 AFSK
UOSAT-12 28 Aug 05:21:18 05:25:01 25° 111° (ESE) 05:28:48 437.025 FM, 437.400 FM
Uosat F 28 Aug 05:38:18 05:43:08 52° 287° (WNW) 05:47:58 435.120 FM
AO-7 28 Aug 05:44:13 05:52:27 73° 290° (WNW) 06:00:40 29.400 - 29.500 MHz
STRAND 1 28 Aug 05:53:00 05:56:36 20° 67° (ENE) 06:00:11 ?
OPAL 28 Aug 05:54:07 05:56:29 13° 266° (W) 05:58:53 ?
JAS-2 28 Aug 06:22:31 06:27:25 38° 99° (E) 06:32:40 435.800 - 435.900 CW/SSB, 435.910 FM
UOSAT-12 28 Aug 07:00:58 07:05:00 30° 306° (NW) 07:09:07 437.025 FM, 437.400 FM
Hamsat 28 Aug 07:01:09 07:05:28 63° 284° (WNW) 07:09:43 145.90 MHz
RS-15 28 Aug 07:17:09 07:27:21 43° 108° (ESE) 07:37:18 29.354 - 29.394 USB, Beacon 29.352 USB
STRAND 1 28 Aug 07:30:40 07:35:27 41° 261° (W) 07:40:15 ?
AO-7 28 Aug 07:40:22 07:43:48 13° 308° (NW) 07:47:14 29.400 - 29.500 MHz
Saudisat 1A 28 Aug 08:05:21 08:09:19 32° 55° (NE) 08:13:16 436.775 MHz
JAS-2 28 Aug 08:08:28 08:12:19 21° 292° (WNW) 08:16:20 435.800 - 435.900 CW/SSB, 435.910 FM
SO-67 28 Aug 08:14:32 08:17:54 50° 284° (WNW) 08:21:15 435.3500 MHz FM
HO-68 28 Aug 08:33:56 08:38:12 17° 93° (E) 08:42:26 435.675 MHz FM
KITSAT 1 28 Aug 08:42:48 08:50:09 37° 54° (NE) 08:57:27 435.175 FM
RS-15 28 Aug 09:28:52 09:39:26 49° 307° (NW) 09:49:55 29.354 - 29.394 USB, Beacon 29.352 USB
Saudisat 1A 28 Aug 09:45:24 09:48:40 20° 250° (WSW) 09:51:54 436.775 MHz
UKube-1 28 Aug 10:11:10 10:15:30 68° 102° (ESE) 10:19:48 145.840 MHz, 145.915 MHz
HO-68 28 Aug 10:19:17 10:26:25 74° 288° (WNW) 10:33:32 435.675 MHz FM
Oscar 11 28 Aug 10:20:09 10:24:25 53° 100° (E) 10:28:40 145.825 FM, Beacon 2401.500 USB
KITSAT 1 28 Aug 10:38:03 10:45:35 45° 251° (WSW) 10:53:04 435.175 FM
FUNcube-1 28 Aug 10:38:37 10:42:42 32° 98° (E) 10:46:48 145.950 - 145.970 MHz USB
ISS 28 Aug 10:42:21 10:45:30 42° 132° (SE) 10:48:40 145.800 FM
RS-15 28 Aug 11:50:18 11:55:28 14° 336° (NNW) 12:00:39 29.354 - 29.394 USB, Beacon 29.352 USB
Oscar 11 28 Aug 11:58:40 12:00:06 11° 294° (WNW) 12:01:31 145.825 FM, Beacon 2401.500 USB
PANSAT 28 Aug 12:07:01 12:09:20 15° 160° (SSE) 12:11:38 not established
HO-68 28 Aug 12:10:53 12:12:53 11° 304° (NW) 12:14:53 435.675 MHz FM
FUNcube-1 28 Aug 12:15:34 12:18:50 20° 291° (WNW) 12:22:08 145.950 - 145.970 MHz USB
ISS 28 Aug 12:20:03 12:22:23 18° 328° (NNW) 12:24:43 145.800 FM
Oscar 16 28 Aug 12:30:58 12:34:08 17° 65° (ENE) 12:37:19 437.025 USB, Beacon 2401.1428
AO-27 28 Aug 12:53:30 12:54:48 11° 63° (ENE) 12:56:06 436.795 MHz FM
MaSat-1 28 Aug 12:59:36 13:03:31 27° 103° (ESE) 13:07:44 437.345 MHz
JAS-1B 28 Aug 13:19:48 13:28:20 35° 66° (ENE) 13:36:16 435.800 - 435.900 CW/SSB
SO-50 28 Aug 13:20:05 13:24:44 47° 58° (ENE) 13:29:24 436.795 FM
Oscar 19 28 Aug 13:33:26 13:38:32 70° 75° (ENE) 13:43:41 437.125 CW, 437.150 USB
PANSAT 28 Aug 13:45:34 13:49:02 32° 172° (S) 13:52:30 not established
TMSAT-1 28 Aug 13:58:27 14:01:28 16° 65° (ENE) 14:04:29 436.925 FM
ITAMSAT 1 28 Aug 14:00:14 14:05:15 54° 73° (ENE) 14:10:17 435.822 SSB
Oscar 16 28 Aug 14:08:03 14:13:01 50° 260° (W) 14:18:03 437.025 USB, Beacon 2401.1428
Uribyol 2 28 Aug 14:10:43 14:15:51 74° 75° (ENE) 14:21:00 436.500 FM
RS-15 28 Aug 14:11:53 14:15:16 12° 16° (NNE) 14:18:39 29.354 - 29.394 USB, Beacon 29.352 USB
Oscar 10/S400 28 Aug 14:16:18 14:34:14 17° 155° (SSE) 14:46:02 145.825 - 145.975 CW/USB, Beacon 145.810 USB
AO-Echo 28 Aug 14:20:34 14:25:42 84° 257° (WSW) 14:30:42 ?
AO-27 28 Aug 14:28:26 14:33:36 77° 257° (WSW) 14:38:48 436.795 MHz FM
MaSat-1 28 Aug 14:36:13 14:40:26 30° 300° (WNW) 14:44:55 437.345 MHz
Gurwin Techsat 1B 28 Aug 14:42:28 14:47:40 60° 74° (ENE) 14:52:54 435.225 FM
AO-7 28 Aug 14:48:58 14:54:49 22° 58° (ENE) 15:00:38 29.400 - 29.500 MHz
SO-50 28 Aug 15:01:56 15:04:54 16° 251° (WSW) 15:07:53 436.795 FM
JAS-1B 28 Aug 15:08:41 15:18:20 56° 260° (W) 15:27:25 435.800 - 435.900 CW/SSB
Uosat F 28 Aug 15:11:41 15:14:14 14° 65° (ENE) 15:16:47 435.120 FM
Oscar 19 28 Aug 15:17:08 15:18:17 11° 269° (W) 15:19:26 437.125 CW, 437.150 USB
PANSAT 28 Aug 15:25:21 15:28:53 35° 185° (S) 15:32:26 not established
UOSAT-12 28 Aug 15:33:33 15:38:17 82° 61° (ENE) 15:42:55 437.025 FM, 437.400 FM
TMSAT-1 28 Aug 15:35:41 15:40:51 56° 259° (W) 15:46:04 436.925 FM
ITAMSAT 1 28 Aug 15:42:15 15:45:00 14° 267° (W) 15:47:46 435.822 SSB
Sapphire 28 Aug 16:17:18 16:20:48 18° 105° (ESE) 16:24:18 437.095 MHz 1200 baud AX-25 AFSK
RS-15 28 Aug 16:22:19 16:32:21 37° 48° (NE) 16:42:39 29.354 - 29.394 USB, Beacon 29.352 USB
Gurwin Techsat 1B 28 Aug 16:25:30 16:27:58 13° 268° (W) 16:30:27 435.225 FM
OPAL 28 Aug 16:26:59 16:30:56 22° 97° (E) 16:34:51 ?
JAS-2 28 Aug 16:34:57 16:36:38 11° 64° (ENE) 16:38:16 435.800 - 435.900 CW/SSB, 435.910 FM
AO-7 28 Aug 16:38:22 16:46:42 76° 254° (WSW) 16:55:04 29.400 - 29.500 MHz
PCSat 28 Aug 16:45:22 16:50:17 37° 109° (ESE) 16:55:13 145.825 MHz
Uosat F 28 Aug 16:47:35 16:52:30 57° 259° (W) 16:57:26 435.120 FM
PANSAT 28 Aug 17:05:47 17:08:40 20° 197° (SSW) 17:11:32 not established
ISS 28 Aug 17:15:21 17:16:55 13° 29° (NNE) 17:18:30 145.800 FM
Hamsat 28 Aug 17:50:20 17:54:31 54° 75° (ENE) 17:58:45 145.90 MHz
Sapphire 28 Aug 17:58:32 18:03:45 50° 299° (WNW) 18:09:01 437.095 MHz 1200 baud AX-25 AFSK
OPAL 28 Aug 18:05:03 18:09:51 38° 291° (WNW) 18:14:38 ?
JAS-2 28 Aug 18:14:35 18:21:08 87° 257° (WSW) 18:26:56 435.800 - 435.900 CW/SSB, 435.910 FM
PCSat 28 Aug 18:29:16 18:33:44 26° 305° (NW) 18:38:13 145.825 MHz
RS-15 28 Aug 18:34:18 18:45:10 61° 248° (WSW) 18:56:32 29.354 - 29.394 USB, Beacon 29.352 USB
AO-7 28 Aug 18:38:49 18:40:31 11° 269° (W) 18:42:13 29.400 - 29.500 MHz
SO-67 28 Aug 18:44:07 18:46:59 25° 73° (ENE) 18:49:51 435.3500 MHz FM
ISS 28 Aug 18:50:41 18:54:01 78° 225° (SW) 18:57:20 145.800 FM
STRAND 1 28 Aug 19:44:49 19:49:56 88° 284° (WNW) 19:55:02 ?
SO-67 28 Aug 20:18:15 20:20:00 13° 266° (W) 20:21:46 435.3500 MHz FM
HO-68 28 Aug 20:43:10 20:50:07 57° 70° (ENE) 20:57:04 435.675 MHz FM
UKube-1 28 Aug 21:03:04 21:07:01 35° 72° (ENE) 21:10:58 145.840 MHz, 145.915 MHz
Oscar 11 28 Aug 21:11:52 21:15:26 26° 71° (ENE) 21:19:01 145.825 FM, Beacon 2401.500 USB
FUNcube-1 28 Aug 21:32:55 21:35:21 15° 68° (ENE) 21:37:49 145.950 - 145.970 MHz USB
Saudisat 1A 28 Aug 22:08:55 22:12:11 21° 110° (ESE) 22:15:27 436.775 MHz
HO-68 28 Aug 22:32:48 22:38:06 22° 265° (W) 22:43:26 435.675 MHz FM
UKube-1 28 Aug 22:40:36 22:43:17 16° 265° (W) 22:45:58 145.840 MHz, 145.915 MHz
Oscar 11 28 Aug 22:48:11 22:51:31 22° 264° (W) 22:54:54 145.825 FM, Beacon 2401.500 USB
MaSat-1 28 Aug 22:57:54 23:01:37 25° 58° (ENE) 23:04:56 437.345 MHz
KITSAT 1 28 Aug 23:06:32 23:13:58 42° 108° (ESE) 23:21:24 435.175 FM
FUNcube-1 28 Aug 23:07:39 23:11:26 34° 262° (W) 23:15:16 145.950 - 145.970 MHz USB
